Regional Weather Roundup
Issued by NWS

Home | Current Version | Previous Version | Graphics & Text | Print | Product List | Glossary On
Versions: 1 2 3 4 5 6 7 8 9 10 11 12 13 14 15 16 17 18 19 20 21 22 23 24 25 26 27 28 29 30 31 32 33 34 35 36 37 38 39 40 41 42 43 44 45 46 47 48 49 50
000
ASUS43 KIND 140259
RWRIN

WEATHER ROUNDUP FOR INDIANA
NATIONAL WEATHER SERVICE INDIANAPOLIS IN
1000 PM EST SAT FEB 13 2016

NOTE: "FAIR" INDICATES FEW OR NO CLOUDS BELOW 12,000 FEET WITH NO
SIGNIFICANT WEATHER AND/OR OBSTRUCTIONS TO VISIBILITY.

* - STATION DOES NOT REPORT WEATHER SUCH AS PRECIPITATION OR FOG.

+ - STATION NOT QUALITY CONTROLLED BY THE NATIONAL WEATHER SERVICE.
    USE DATA WITH CAUTION...ESPECIALLY DEWPOINT AND RELATIVE
    HUMIDITY OBSERVATIONS.

INZ001>003-010>013-019-020-140400-
NORTHWEST INDIANA

CITY           SKY/WX    TMP DP  RH WIND       PRES   REMARKS
GARY /AIRPORT/ PTCLDY    14  -2  48 CALM      30.50S

$$

LMZ046-743>745-140400-
SOUTHERN LAKE MICHIGAN

STATION/POSITION TIME  TEMP    WIND        PRES    WAVE
                       AIR SEA DIR/SP/G            HT
                 (UTC) (F)     (DEG/KT/KT) (MB)    (FT)
BURNS HARBOR     0200   13     170/  4/  6 1032.8F
MICHIGAN CITY    0200   12     150/  4/  5   N/A

$$

INZ004-005-014>016-021>024-140400-
NORTH CENTRAL INDIANA

CITY           SKY/WX    TMP DP  RH WIND       PRES   REMARKS
GOSHEN         CLOUDY     9   3  77 SW5       30.47F WCI   1
SOUTH BEND     CLOUDY     8   2  76 SW6       30.49S WCI  -2

$$

INZ006>009-017-018-025>027-140400-
NORTHEAST INDIANA

CITY           SKY/WX    TMP DP  RH WIND       PRES   REMARKS
ANGOLA *+      CLOUDY    10   5  79 W3        30.44F
FORT WAYNE     CLOUDY     8   1  73 W6        30.49F WCI  -2

$$

INZ028-029-035-036-043>045-051>053-140400-
WEST CENTRAL INDIANA

CITY           SKY/WX    TMP DP  RH WIND       PRES   REMARKS
CRAWFORDSVL +  CLOUDY     8   0  70 CALM      30.49F
GREENCASTLE +  CLOUDY    14   0  52 CALM      30.49F
LAFAYETTE      CLOUDY    11   2  67 CALM      30.50F
TERRE HAUTE    PTCLDY    17   7  64 NE3       30.50F

$$

INZ030>032-037>040-046>048-054>057-064-065-140400-
CENTRAL INDIANA

CITY           SKY/WX    TMP DP  RH WIND       PRES   REMARKS
COLUMBUS       CLEAR     14   5  67 N5        30.51S WCI   6
GREENWOOD *+   PTCLDY    14   3  62 CALM      30.49
INDIANAPOLIS   CLOUDY    14   0  53 NW3       30.47F
-EAGLE CREEK   CLOUDY    14   1  56 CALM      30.48F
KOKOMO *+      PTCLDY     7  -2  66 CALM      30.49S
MT COMFORT *+  PTCLDY    12   3  67 CALM      30.49F
SHELBYVILLE    PTCLDY    13  -1  54 E3        30.49F

$$

INZ033-034-041-042-049-050-058-059-140400-
EAST CENTRAL INDIANA

CITY           SKY/WX    TMP DP  RH WIND       PRES   REMARKS
MUNCIE         CLOUDY     9  -2  61 CALM      30.48F

$$

INZ060-061-067>069-081>083-085>088-140400-
SOUTHWEST INDIANA

CITY           SKY/WX    TMP DP  RH WIND       PRES   REMARKS
EVANSVILLE     CLOUDY    24   2  38 NE7       30.49F WCI  16
HUNTINGBURG *+ PTCLDY    19   3  49 N6        30.50S WCI  11

$$

INZ062-063-066-070>080-084-089>092-140400-
SOUTH CENTRAL AND SOUTHEAST INDIANA

CITY           SKY/WX    TMP DP  RH WIND       PRES   REMARKS
BLOOMINGTON    CLOUDY    16   1  51 NE6       30.48F WCI   7
MADISON *+     CLOUDY    16   5  62 CALM      30.50F
SEYMOUR +      CLOUDY    18   5  57 E3        30.50F

$$




USA.gov is the U.S. government's official web portal to all federal, state and local government web resources and services.